Home   Weather   Harrisburg   Past weeks

Flag for USA Past Weather in Harrisburg, Pennsylvania, USA — Yesterday and Last 2 Weeks

Now
69 °F

Light rain. Partly sunny.


Feels Like: 69 °F
Forecast: 67 / 85 °F
Wind: 8 mph from Southwest

Location: Capital City Airport

Current Time: Apr 29, 2017 at 10:01:49 am

Latest Report: Apr 29, 2017 at 8:56 am


Visibility: 5 mi

Pressure: 30.06 "Hg

Humidity: 79%

Dew Point: 62 °F

Location of HarrisburgLocation

Past Weather in Harrisburg — Graph

°F

Harrisburg Temperature Yesterday

Maximum temperature yesterday: 82 °F (at 2:56 pm)
Minimum temperature yesterday: 60 °F (at 6:23 am)
Average temperature yesterday: 71 °F

High & Low Weather Summary for the Past Weeks

 TemperatureHumidityPressure
High85 °F (Apr 16, 12:56 pm)94% (Apr 27, 7:55 am)30.45 "Hg (Apr 27, 7:55 am)
Low39 °F (Apr 23, 6:56 am)18% (Apr 17, 7:56 pm)29.73 "Hg (Apr 27, 4:56 pm)
Average61 °F66%30.02 "Hg
* Reported Apr 14 7:56 am — Apr 29 7:56 am, Harrisburg, Weather by CustomWeather, © 2017

Note: Actual official high and low records may vary slightly from our data, if they occured in-between our weather recording intervals... More about our weather records

Advertising

Harrisburg Weather History for the Previous 24 Hours

Scroll right to see more
 ConditionsComfort  
Time TempWeatherWind HumidityBarometerVisibility
7:56 am
Sat, Apr 29
66 °FFog.5 mph90%30.05 "Hg4 mi
7:28 am66 °FFog.3 mph90%30.03 "Hg3 mi
7:05 am65 °FFog.5 mph94%30.01 "Hg2 mi
6:27 am64 °FFog.No wind94%29.97 "Hg1 mi
6:11 am65 °FFog.No wind91%29.96 "Hg1 mi
5:56 am65 °FFog.No wind94%29.96 "Hg2 mi
4:56 am65 °FFog.3 mph94%29.98 "Hg4 mi
4:08 am66 °FLight rain. Partly cloudy.6 mph90%29.99 "Hg7 mi
3:42 am66 °FLight rain. Fog.8 mph90%29.96 "Hg6 mi
3:22 am65 °FThunderstorms. Fog.9 mph94%29.99 "Hg4 mi
2:56 am66 °FStrong thunderstorms. Overcast.10 mph81%30.06 "Hg2 mi
1:56 am69 °FPassing clouds.3 mph76%30.01 "Hg10 mi
12:56 am70 °FPassing clouds.No wind73%30.01 "Hg10 mi
11:56 pm
Fri, Apr 28
72 °FLight rain. Passing clouds.8 mph64%30.02 "Hg10 mi
10:56 pm73 °FPassing clouds.8 mph53%30.01 "Hg10 mi
9:56 pm73 °FClear.8 mph50%30.02 "Hg10 mi
8:56 pm72 °FClear.No wind49%30.00 "Hg10 mi
7:56 pm79 °FSunny.No wind31%30.00 "Hg10 mi
6:56 pm81 °FSunny.6 mph29%30.00 "Hg10 mi
5:56 pm80 °FSunny.6 mph30%30.00 "Hg10 mi
4:56 pm82 °FSunny.6 mph27%29.99 "Hg10 mi
3:56 pm82 °FSunny.8 mph26%30.00 "Hg10 mi
2:56 pm82 °FSunny.8 mph26%30.02 "Hg10 mi
1:56 pm78 °FSunny.5 mph32%30.03 "Hg10 mi
12:56 pm77 °FSunny.7 mph35%30.02 "Hg10 mi
11:56 am76 °FSunny.10 mph39%30.03 "Hg10 mi
10:56 am74 °FSunny.7 mph45%30.03 "Hg10 mi
Weather by CustomWeather, © 2017

See weather overviewHow to use our weather pages